FW9733 Weather Reports


Display with metric or nautical units.
time (UTC)temp
F
wind
direction
speed
MPH
gust
MPH
rain 1hr
in
rain 24hr
in
rain mn
in
humidity
%
barometer
mb
20260902021557 57 0 0.0 8.0 0.00 0.00 0.00 51 1022.9
20260902020107 57 15 0.0 4.0 0.00 0.00 0.00 50 1022.8
20260902014550 58 0 0.0 3.0 0.00 0.00 0.00 48 1023.0
20260902013057 59 0 0.0 3.0 0.00 0.00 0.00 48 1022.9
20260902011556 60 0 0.0 4.0 0.00 0.00 0.00 46 1023.0
20260902010051 62 248 1.0 11.0 0.00 0.00 0.00 43 1023.1
20260902004559 63 159 1.0 5.0 0.00 0.00 0.00 40 1023.1
20260902003057 63 0 1.0 4.0 0.00 0.00 0.00 38 1023.1
20260902001552 64 0 0.0 5.0 0.00 0.00 0.00 35 1023.1
20260901234559 65 235 1.0 6.0 0.00 0.00 0.00 34 1023.3
20260901233101 65 311 1.0 5.0 0.00 0.00 0.00 33 1023.3
20260901231557 65 13 1.0 7.0 0.00 0.00 0.00 33 1023.4
20260901230059 66 332 1.0 7.0 0.00 0.00 0.00 32 1023.5
20260901224554 66 28 1.0 6.0 0.00 0.00 0.00 31 1023.6
20260901223059 67 250 1.0 7.0 0.00 0.00 0.00 30 1023.7
20260901221557 67 98 1.0 7.0 0.00 0.00 0.00 28 1023.6
20260901220053 67 0 1.0 6.0 0.00 0.00 0.00 27 1023.9
20260901214600 68 338 1.0 5.0 0.00 0.00 0.00 27 1023.8
20260901213115 69 245 1.0 9.0 0.00 0.00 0.00 26 1023.8
20260901211555 69 4 2.0 6.0 0.00 0.00 0.00 29 1023.8
20260901210100 69 319 1.0 5.0 0.00 0.00 0.00 26 1023.8
20260901204556 69 245 1.0 7.0 0.00 0.00 0.00 28 1023.9
20260901203109 69 354 2.0 8.0 0.00 0.00 0.00 27 1024.0
20260901201600 70 254 0.0 7.0 0.00 0.00 0.00 27 1024.1
20260901200058 69 281 2.0 9.0 0.00 0.00 0.00 27 1024.2
20260901194559 71 74 2.0 7.0 0.00 0.00 0.00 26 1024.3
20260901193125 69 51 3.0 8.0 0.00 0.00 0.00 25 1024.4
20260901191556 70 312 3.0 11.0 0.00 0.00 0.00 24 1024.3
20260901190106 71 342 2.0 6.0 0.00 0.00 0.00 23 1024.5
20260901184559 69 252 1.0 7.0 0.00 0.00 0.00 23 1024.7
20260901183057 68 11 2.0 9.0 0.00 0.00 0.00 23 1024.7
20260901181602 69 238 2.0 8.0 0.00 0.00 0.00 23 1024.7
20260901180059 68 26 0.0 6.0 0.00 0.00 0.00 24 1024.7
20260901174559 68 289 1.0 8.0 0.00 0.00 0.00 29 1024.5
20260901173120 67 319 1.0 5.0 0.00 0.00 0.00 31 1024.3
20260901171609 67 0 1.0 6.0 0.00 0.00 0.00 33 1024.3
20260901170108 67 321 0.0 4.0 0.00 0.00 0.00 34 1024.1
20260901164600 65 0 1.0 5.0 0.00 0.00 0.00 35 1024.0
20260901163054 66 0 0.0 7.0 0.00 0.00 0.00 32 1023.8
20260901161601 65 313 0.0 4.0 0.00 0.00 0.00 33 1023.8
20260901160059 63 166 1.0 6.0 0.00 0.00 0.00 38 1023.8
20260901154605 62 0 0.0 6.0 0.00 0.00 0.00 42 1023.6
20260901153101 61 232 2.0 5.0 0.00 0.00 0.00 45 1023.6
20260901151558 59 87 0.0 6.0 0.00 0.00 0.00 53 1023.4
20260901144559 49 101 0.0 2.0 0.00 0.00 0.00 67 1023.4
20260901143113 46 53 0.0 2.0 0.00 0.00 0.00 64 1023.2
20260901141555 45 105 0.0 2.0 0.00 0.00 0.00 61 1023.3
20260901140054 44 0 0.0 1.0 0.00 0.00 0.00 58 1023.0
20260901134620 44 0 0.0 1.0 0.00 0.00 0.00 56 1022.8
20260901133101 44 105 0.0 3.0 0.00 0.00 0.00 53 1022.6
20260901131557 44 0 0.0 1.0 0.00 0.00 0.00 52 1022.5
20260901130051 44 144 0.0 0.0 0.00 0.00 0.00 52 1022.5
20260901124602 44 0 0.0 1.0 0.00 0.00 0.00 51 1022.4
20260901123056 45 0 0.0 3.0 0.00 0.00 0.00 51 1022.5
20260901121602 44 0 0.0 1.0 0.00 0.00 0.00 53 1022.6
20260901120059 44 0 0.0 1.0 0.00 0.00 0.00 55 1022.6
20260901114601 44 75 0.0 5.0 0.00 0.00 0.00 56 1022.8
20260901113055 42 0 0.0 1.0 0.00 0.00 0.00 61 1022.8
20260901111603 42 82 0.0 1.0 0.00 0.00 0.00 63 1022.7
20260901110058 42 0 0.0 1.0 0.00 0.00 0.00 65 1022.8
20260901104557 42 0 0.0 1.0 0.00 0.00 0.00 63 1023.0
20260901103102 43 0 0.0 1.0 0.00 0.00 0.00 62 1023.0
20260901101557 43 0 0.0 1.0 0.00 0.00 0.00 61 1023.0
20260901100058 43 0 0.0 1.0 0.00 0.00 0.00 60 1023.1
20260901094552 43 0 0.0 1.0 0.00 0.00 0.00 60 1023.0
20260901093109 44 0 0.0 1.0 0.00 0.00 0.00 60 1023.2
20260901091601 44 0 0.0 1.0 0.00 0.00 0.00 59 1023.1
20260901090058 44 0 0.0 1.0 0.00 0.00 0.00 60 1023.2
20260901084552 45 86 0.0 1.0 0.00 0.00 0.00 61 1023.3
20260901083101 45 86 0.0 1.0 0.00 0.00 0.00 61 1023.4
20260901081559 45 84 0.0 1.0 0.00 0.00 0.00 63 1023.6
20260901080058 45 0 0.0 1.0 0.00 0.00 0.00 64 1023.6
20260901074602 46 0 0.0 1.0 0.00 0.00 0.00 64 1023.7
20260901073102 46 0 0.0 1.0 0.00 0.00 0.00 63 1023.9
20260901071558 46 0 0.0 1.0 0.00 0.00 0.00 62 1024.0
20260901070056 46 0 0.0 1.0 0.00 0.00 0.00 61 1024.0
20260901064552 47 0 0.0 1.0 0.00 0.00 0.00 61 1023.9
20260901063100 47 0 0.0 1.0 0.00 0.00 0.00 61 1023.9
20260901061558 47 101 0.0 1.0 0.00 0.00 0.00 62 1023.9
20260901060110 47 0 0.0 1.0 0.00 0.00 0.00 64 1024.0
20260901054558 48 0 0.0 1.0 0.00 0.00 0.00 69 1024.2
20260901053058 48 0 0.0 1.0 0.00 0.00 0.00 74 1024.2
20260901051558 49 0 0.0 1.0 0.00 0.00 0.00 76 1024.3
20260901050100 50 0 0.0 1.0 0.00 0.00 0.00 77 1024.5
20260901044559 51 0 0.0 1.0 0.00 0.00 0.00 78 1024.5
20260901043103 51 0 0.0 0.0 0.00 0.00 0.00 79 1024.3
20260901041600 52 0 0.0 0.0 0.00 0.00 0.00 78 1024.2
20260901040115 53 0 0.0 1.0 0.00 0.00 0.00 78 1024.0
20260901034601 54 0 0.0 1.0 0.00 0.00 0.00 76 1023.9
20260901033100 56 0 0.0 1.0 0.00 0.00 0.00 76 1023.5
20260901031556 56 0 0.0 0.0 0.00 0.00 0.00 76 1023.2
20260901030105 57 0 0.0 1.0 0.00 0.00 0.00 74 1023.0
20260901024600 58 0 0.0 4.0 0.00 0.00 0.00 73 1022.8
20260901023059 58 0 0.0 2.0 0.00 0.00 0.00 72 1022.9